Weather in zheleznodorozhnaya stantsiya Chudovo-3

Russia / Novgorod Oblast     59°09′50″N   31°40′16″E
temp.,
°C
wind,
m/s
gust,
m/s
humid.,
%
clouds,
%
prec.,
mm/h
press.,
hPa
HPBL,
m
3 march, wed
wed300:00−2wnw3119222 0.1 1017365
03:00−2wnw4119220 0.1 1018431
06:00−2wnw3119323 0.0 1016419
09:00−2w4119233 0.0 1015518
12:00+1w5107865 0.0 1013773
15:00+2w5117180 0.0 10111254
18:00+1w51286100 0.0 1007923
21:00+1wnw51297100 0.4 1005782
4 march, thu
thu400:000wnw4128699 0.4 1003713
03:00−2wnw4118583 0.4 1004591
06:00−4nw39810 0.0 1003406
09:00−4nw37820 0.0 1003421
12:00−2nw24720 0.0 1003664
15:00−1nnw246943 0.0 1003948
18:00−3n2389100 0.2 1003261
21:00−5nnw4980100 1.2 1004729
5 march, fri
fri500:00−5nw489099 0.1 1005715
03:00−6nw378799 0.3 1006586
06:00−7nw3790100 0.1 1007540
09:00−7nw3684100 0.1 1009668
12:00−6nw3575100 0.1 1010860
15:00−5nnw4670100 0.2 10121048
18:00−7nnw376333 0.0 1013610
21:00−8n117752 0.0 101549
6 march, sat
sat600:00−8wsw248198 0.0 1016279
03:00−8wnw369499 0.1 1017336
06:00−9w279664 0.0 1016229
09:00−8w378844 0.0 1015379
12:00−4wsw47700 0.0 1014813
15:00−3sw6115847 0.0 10101365
18:00−4ssw71589100 0.3 10041382
21:00−3sw71592100 1.6 9971230
7 march, sun
sun700:00−1sw71593100 1.1 9911135
03:000wsw71687100 1.8 9871148
06:00−7wnw71749100 1.3 9881376
09:00−7wsw6127367 1.4 9881523
12:00−6w71257100 0.1 9871635
15:00−5wnw7128797 1.5 9851173
18:00−5nnw81589100 1.9 9881243
21:00−8nnw81485100 2.7 9931077